Regional Weather Roundup
Issued by NWS Midland/Odessa, TX

Home | Current Version | Previous Version | Text Only | Print | Product List | Glossary On
Versions: 1 2 3 4 5 6 7 8 9 10 11 12 13 14 15 16 17 18 19 20 21 22 23 24 25 26 27 28 29 30 31 32 33 34 35 36 37 38 39 40 41 42 43 44 45 46 47 48 49 50
000
ASUS44 KMAF 252010
RWRMAF
MIDLAND AREA WEATHER ROUNDUP
NATIONAL WEATHER SERVICE MIDLAND TX
300 PM CDT SUN SEP 25 2016

...IN SOUTHWEST TEXAS AND SOUTHEAST NEW MEXICO...

CITY           SKY/WX    TMP DP  RH WIND       PRES   REMARKS
ALPINE         CLOUDY    67  60  78 NE10      30.22F
ANDREWS        RAIN      64  64 100 N10G17    30.18S
ARTESIA        CLOUDY    70  52  52 NE21      30.22S
BIG SPRING     CLOUDY    73  66  80 NE13      30.14F
CARLSBAD       CLOUDY    69  50  50 N16       30.19R
DRYDEN           N/A     72  67  84 NE12      30.04F
FORT STOCKTON  PTSUNNY   74  63  68 NE10G18   30.10F
GUAD PASS      CLOUDY    68  49  50 NE20      30.25R
HOBBS          PTSUNNY   66  54  63 N26G32    30.21F
MARFA          PTSUNNY  N/A N/A N/A MISG      30.19F
MIDLAND AIRPK  CLOUDY    73  61  67 E14       30.13F
MIDLAND INTL   CLOUDY    73  61  65 NE14      30.12F
ODESSA         CLOUDY    73  60  63 E13       30.14S
PECOS          RAIN      64  59  85 NW10      30.13R
PRESIDIO       LGT RAIN  66  63  90 CALM      30.10F
SEMINOLE       RAIN      60  57  91 NE18G26   30.22R
SNYDER           N/A     67  64  89 CALM      30.17R
WINK           CLOUDY    73  64  73 N5        30.11S
$$
...OTHER STATIONS IN TEXAS...

CITY           SKY/WX    TMP DP  RH WIND       PRES   REMARKS
ABILENE        LGT RAIN  68  67  96 N6        30.12F FOG
AMARILLO       SUNNY     74  40  29 NE26G36   30.29F
AUSTIN         CLOUDY    81  76  84 NE7       29.94F THUNDER
BROWNSVILLE    MOSUNNY   94  72  48 S18G24    29.87F HX 102
CORPUS CHRISTI CLOUDY    89  77  67 SE16      29.89F HX 101
DALLAS FTW     LGT RAIN  78  72  81 N6        30.02S
DEL RIO        LGT RAIN  71  69  93 N5        29.99F
EL PASO        PTSUNNY   78  37  22 E16       30.15F
HOUSTON INT    TSTM      75  72  90 SE36G43   29.97R VSB 1
LUBBOCK        CLOUDY    64  47  53 NE15G29   30.24R
SAN ANGELO     LGT RAIN  69  66  90 NE10      30.06F
SAN ANTONIO    CLOUDY    79  73  82 E21G29    29.95S
WACO           CLOUDY    79  74  84 NE9       29.99F
WICHITA FALLS  NOT AVBL
$$
...OTHER LOCATIONS IN NEW MEXICO...

CITY           SKY/WX    TMP DP  RH WIND       PRES   REMARKS
ALAMAGORDO     MOSUNNY   73  34  23 S5        30.17F
ALBUQUERQUE    MOSUNNY   73  35  25 E20G26    30.30F
CANNON AFB     CLOUDY    69  42  37 NE26G35   30.28F
CLOVIS         PTSUNNY   70  43  37 NE28G35   30.30F
HOLLOMAN AFB   CLOUDY    76  36  23 E6        30.15F
ROSWELL        MOSUNNY   75  45  34 NE21G28   30.24F
RUIDOSO        CLOUDY    59  39  47 SE14      30.39S
SANTA FE       SUNNY     69  33  26 VRB3      30.35F
TRUTH OR CONSE MOSUNNY   75  34  22 NE21G30   30.21F
TUCUMCARI      SUNNY     75  37  25 NE23G33   30.30F
$$



USA.gov is the U.S. government's official web portal to all federal, state and local government web resources and services.